Other Surface Observations
Issued by NWS Jacksonville, FL

Home | Current Version | Previous Version | Text Only | Print | Product List | Glossary On
Versions: 1 2 3 4 5 6 7 8 9 10 11 12 13 14 15 16 17 18 19 20 21 22 23 24 25 26 27 28 29 30 31 32 33 34 35 36 37 38 39 40 41 42 43 44 45 46 47 48 49 50
000
SXUS52 KJAX 021113
OSOJAX
OTHER SURFACE OBSERVATIONS
NATIONAL WEATHER SERVICE JACKSONVILLE FL
700 AM EDT TUE JUN 02 2015

FLZ020>025-030>033-035>038-040-021200-
...FLORIDA...

CITY           SKY/WX    TMP DP  RH WIND       PRES   REMARKS
CECIL FIELD    PTCLDY    64  64 100 CALM      30.02S FOG
HERLONG FIELD  NOT AVBL
FERNANDINA BCH NOT AVBL
LAKE CITY      FAIR      66  66 100 CALM      30.00S
JUNIPER SPGS   NOT AVBL
BUNNELL        NOT AVBL
KEYSTONE HGTS  CLOUDY    68  68 100 E5        30.01S VSB 1/4
$$

GAZ132>136-149>154-162>166-021200-
...GEORGIA...

CITY           SKY/WX    TMP DP  RH WIND       PRES   REMARKS
JESUP          FAIR      68  66  94 CALM      30.02R
HOMERVILLE     FAIR      68  68 100 CALM      30.02R
SWAINSBORO     PTSUNNY  N/A N/A N/A CALM      30.03R
CORDELE        NOT AVBL
EASTMAN        FOG       65  65 100 CALM      30.05R VSB 1/2
$$

PLEASE NOTE:  THESE OBSERVATIONS ARE NOT QUALITY CONTROLLED AND MAY
NOT BE AVAILABLE AT ALL TIMES.
$$


USA.gov is the U.S. government's official web portal to all federal, state and local government web resources and services.